Manteo, NC

4:59 AM EDT on September 29, 2016 (GMT -0400)
Dare County Regional

Weather History for KMQI - December, 2012

Change the Weather History Date:

Wednesday, December 19, 2012

  Actual Average Record
Temperature  
Mean Temperature 52 °F -  
Max Temperature 62 °F 51 °F 70 °F (1984)
Min Temperature 44 °F 38 °F 22 °F (1975)
Degree Days  
Heating Degree Days 12    
Growing Degree Days 2 (Base 50)    
Moisture  
Dew Point 40 °F    
Average Humidity 66    
Maximum Humidity 87    
Minimum Humidity 41    
Precipitation  
Precipitation 0.00 in - - ()
Sea Level Pressure  
Sea Level Pressure 29.99 in    
Wind  
Wind Speed 7 mph (WNW)    
Max Wind Speed 13 mph    
Max Gust Speed 21 mph    
Visibility 10 miles    
Events      
Averages and records for this station are not official NWS values.
T = Trace of Precipitation, MM = Missing Value Source: NWS Daily Summary

Daily Weather History Graph

Daily Weather History Graph

Search for Another Location

Airport or City:

Trip Planner

Search our weather history database for the weather conditions in past years. The results will help you decide how hot, cold, wet, or windy it might be!

Date:

Astronomy

Dec. 19, 2012 Rise Set
Actual Time 7:08 AM EST 4:51 PM EST
Civil Twilight 6:39 AM EST 5:20 PM EST
Nautical Twilight 6:07 AM EST 5:52 PM EST
Astronomical Twilight 5:36 AM EST 6:23 PM EST
Moon 11:28 AM EST (12/19) No Moon Set
Length of Visible Light 10h 40m
Length of Day
9h 43m
Waxing Crescent, 45% of the Moon is Illuminated
Dec 19
Waxing Crescent
Dec 20
First Quarter
Dec 28
Full
Jan 4
Last Quarter
Jan 11
New

Hourly Weather History & Observations

Time (EST) Temp. Windchill Dew Point Humidity Pressure Visibility Wind Dir Wind Speed Gust Speed Precip Events Conditions
12:15 AM 50.9 °F - 39.7 °F 66% 29.87 in 10.0 mi WNW 8.1 mph 17.3 mph N/A   Clear
12:35 AM 50.7 °F - 40.1 °F 67% 29.87 in 10.0 mi NW 9.2 mph - N/A   Clear
12:55 AM 50.2 °F - 39.6 °F 67% 29.87 in 10.0 mi WNW 4.6 mph - N/A   Clear
1:15 AM 49.3 °F - 39.7 °F 70% 29.87 in 10.0 mi WNW 5.8 mph - N/A   Clear
1:35 AM 49.1 °F - 39.6 °F 70% 29.88 in 10.0 mi WNW 4.6 mph - N/A   Clear
1:55 AM 48.6 °F - 40.6 °F 74% 29.90 in 10.0 mi WNW 6.9 mph - N/A   Clear
2:15 AM 48.6 °F - 39.9 °F 72% 29.89 in 10.0 mi WNW 5.8 mph - N/A   Clear
2:35 AM 48.2 °F - 39.7 °F 73% 29.90 in 10.0 mi WNW 5.8 mph - N/A   Clear
2:55 AM 48.2 °F - 39.7 °F 73% 29.90 in 10.0 mi WNW 4.6 mph - N/A   Clear
3:15 AM 48.0 °F - 40.1 °F 74% 29.89 in 10.0 mi WNW 4.6 mph - N/A   Clear
3:35 AM 47.7 °F - 40.1 °F 75% 29.91 in 10.0 mi WNW 3.5 mph - N/A   Clear
3:55 AM 47.5 °F - 40.1 °F 76% 29.92 in 10.0 mi WNW 5.8 mph - N/A   Clear
4:15 AM 47.3 °F - 41.0 °F 79% 29.92 in 10.0 mi West 3.5 mph - N/A   Clear
4:35 AM 46.4 °F 43.5 °F 40.5 °F 80% 29.93 in 10.0 mi West 5.8 mph - N/A   Clear
4:55 AM 46.4 °F 44.3 °F 40.1 °F 79% 29.93 in 10.0 mi West 4.6 mph - N/A   Clear
5:15 AM 45.7 °F 44.4 °F 39.6 °F 79% 29.93 in 10.0 mi West 3.5 mph - N/A   Clear
5:35 AM 45.9 °F 43.6 °F 39.6 °F 79% 29.94 in 10.0 mi WSW 4.6 mph - N/A   Clear
5:55 AM 45.5 °F 44.2 °F 39.2 °F 79% 29.95 in 10.0 mi West 3.5 mph - N/A   Clear
6:15 AM 45.5 °F - 39.0 °F 78% 29.94 in 10.0 mi Calm Calm - N/A   Clear
6:35 AM 45.7 °F 44.4 °F 38.3 °F 75% 29.95 in 10.0 mi WSW 3.5 mph - N/A   Clear
6:55 AM 45.5 °F 42.5 °F 38.7 °F 77% 29.95 in 10.0 mi SW 5.8 mph - N/A   Clear
7:15 AM 44.8 °F 41.6 °F 37.9 °F 77% 29.95 in 10.0 mi SW 5.8 mph - N/A   Clear
7:35 AM 45.1 °F 42.8 °F 38.7 °F 78% 29.96 in 10.0 mi WSW 4.6 mph - N/A   Clear
7:55 AM 45.7 °F 41.5 °F 39.0 °F 78% 29.95 in 10.0 mi WSW 8.1 mph - N/A   Clear
8:15 AM 46.6 °F - 39.0 °F 75% 29.96 in 10.0 mi WSW 8.1 mph - N/A   Clear
8:35 AM 47.7 °F - 39.0 °F 72% 29.96 in 10.0 mi West 6.9 mph - N/A   Clear
8:55 AM 49.3 °F - 39.4 °F 69% 29.96 in 10.0 mi WSW 9.2 mph - N/A   Clear
9:15 AM 51.1 °F - 39.6 °F 65% 29.97 in 10.0 mi WSW 9.2 mph - N/A   Clear
9:35 AM 53.2 °F - 39.0 °F 59% 29.97 in 10.0 mi West 9.2 mph - N/A   Clear
9:55 AM 55.6 °F - 37.9 °F 52% 29.98 in 10.0 mi West 10.4 mph 16.1 mph N/A   Clear
10:15 AM 56.8 °F - 37.4 °F 48% 29.98 in 10.0 mi West 9.2 mph 16.1 mph N/A   Clear
10:35 AM 57.9 °F - 38.3 °F 48% 29.98 in 10.0 mi West 10.4 mph 16.1 mph N/A   Clear
10:55 AM 58.3 °F - 37.6 °F 46% 29.97 in 10.0 mi WNW 11.5 mph 19.6 mph N/A   Clear
11:15 AM 59.4 °F - 38.7 °F 46% 29.97 in 10.0 mi West 9.2 mph 18.4 mph N/A   Clear
11:35 AM 60.8 °F - 37.8 °F 42% 29.97 in 10.0 mi WNW 12.7 mph 18.4 mph N/A   Clear
11:55 AM 61.0 °F - 39.0 °F 44% 29.97 in 10.0 mi WNW 11.5 mph 19.6 mph N/A   Clear
12:15 PM 61.7 °F - 37.4 °F 41% 29.96 in 10.0 mi WNW 12.7 mph 20.7 mph N/A   Clear
12:35 PM 61.7 °F - 37.4 °F 41% 29.96 in 10.0 mi WNW 10.4 mph 18.4 mph N/A   Clear
12:55 PM 61.9 °F - 38.3 °F 42% 29.96 in 10.0 mi WNW 10.4 mph 17.3 mph N/A   Clear
1:15 PM 61.5 °F - 37.9 °F 42% 29.96 in 10.0 mi WNW 10.4 mph 20.7 mph N/A   Clear
1:35 PM 61.9 °F - 38.8 °F 43% 29.96 in 10.0 mi WNW 8.1 mph 16.1 mph N/A   Clear
1:55 PM 61.9 °F - 37.9 °F 41% 29.96 in 10.0 mi WNW 9.2 mph - N/A   Clear
2:15 PM 61.7 °F - 37.8 °F 41% 29.96 in 10.0 mi NW 10.4 mph 17.3 mph N/A   Clear
2:35 PM 61.2 °F - 38.5 °F 43% 29.97 in 10.0 mi WNW 9.2 mph 16.1 mph N/A   Clear
2:55 PM 61.0 °F - 38.3 °F 43% 29.97 in 10.0 mi WNW 5.8 mph - N/A   Clear
3:15 PM 60.8 °F - 38.8 °F 44% 29.98 in 10.0 mi WNW 8.1 mph - N/A   Clear
3:35 PM 60.3 °F - 39.6 °F 46% 29.98 in 10.0 mi WNW 8.1 mph - N/A   Clear
3:55 PM 59.9 °F - 38.7 °F 45% 29.99 in 10.0 mi NW 4.6 mph - N/A   Clear
4:15 PM 58.8 °F - 39.2 °F 48% 30.00 in 10.0 mi NW 3.5 mph - N/A   Clear
4:35 PM 56.7 °F - 39.7 °F 53% 30.01 in 10.0 mi WNW 4.6 mph - N/A   Clear
4:55 PM 55.4 °F - 41.2 °F 59% 30.01 in 10.0 mi WNW 3.5 mph - N/A   Clear
5:15 PM 54.9 °F - 40.3 °F 58% 30.03 in 10.0 mi WNW 3.5 mph - N/A   Clear
5:35 PM 52.9 °F - 40.6 °F 63% 30.03 in 10.0 mi NNW 3.5 mph - N/A   Clear
5:55 PM 54.0 °F - 40.5 °F 60% 30.04 in 10.0 mi Calm Calm - N/A   Clear
6:15 PM 51.3 °F - 41.4 °F 69% 30.05 in 10.0 mi Calm Calm - N/A   Clear
6:35 PM 53.4 °F - 41.2 °F 63% 30.06 in 10.0 mi Calm Calm - N/A   Clear
6:55 PM 50.5 °F - 44.6 °F 80% 30.08 in 10.0 mi NNE 3.5 mph - N/A   Clear
7:15 PM 47.1 °F - 42.6 °F 84% 30.08 in 10.0 mi ENE 3.5 mph - N/A   Clear
7:35 PM 47.7 °F - 43.3 °F 85% 30.09 in 10.0 mi NE 3.5 mph - N/A   Clear
7:55 PM 46.2 °F - 42.4 °F 87% 30.10 in 10.0 mi Calm Calm - N/A   Clear
8:15 PM 50.0 °F - 46.4 °F 87% 30.11 in 10.0 mi NE 6.9 mph - N/A   Clear
8:35 PM 50.9 °F - 45.9 °F 83% 30.11 in 10.0 mi NE 8.1 mph - N/A   Clear
8:55 PM 50.9 °F - 46.0 °F 83% 30.11 in 10.0 mi NE 10.4 mph - N/A   Clear
9:15 PM 50.9 °F - 45.7 °F 82% 30.11 in 10.0 mi NE 9.2 mph - N/A   Clear
9:35 PM 50.5 °F - 44.8 °F 81% 30.12 in 10.0 mi NE 8.1 mph - N/A   Clear
9:55 PM 50.2 °F - 44.6 °F 81% 30.14 in 10.0 mi NE 6.9 mph - N/A   Clear
10:15 PM 50.7 °F - 44.6 °F 80% 30.14 in 10.0 mi NE 9.2 mph - N/A   Clear
10:35 PM 50.7 °F - 44.4 °F 79% 30.16 in 10.0 mi NE 8.1 mph - N/A   Clear
10:55 PM 50.9 °F - 43.7 °F 76% 30.15 in 10.0 mi NE 8.1 mph - N/A   Clear
11:15 PM 50.9 °F - 43.0 °F 74% 30.16 in 10.0 mi NE 10.4 mph - N/A   Clear
11:35 PM 50.9 °F - 42.4 °F 73% 30.16 in 10.0 mi NNE 11.5 mph 16.1 mph N/A   Clear
11:55 PM 50.7 °F - 42.8 °F 74% 30.16 in 10.0 mi NE 9.2 mph - N/A   Clear